Regional Weather Roundup
Issued by NWS

Home | Current Version | Previous Version | Text Only | Print | Product List | Glossary On
Versions: 1 2 3 4 5 6 7 8 9 10 11 12 13 14 15 16 17 18 19 20 21 22 23 24 25 26 27 28 29 30 31 32 33 34 35 36 37 38 39 40 41 42 43 44 45 46 47 48 49 50
000
ASUS45 KABQ 210910
RWRNM
NEW MEXICO REGIONAL WEATHER ROUNDUP
NATIONAL WEATHER SERVICE ALBUQUERQUE NM
300 AM MDT SAT OCT 21 2017

NOTE: "FAIR" MEANS FEW OR NO CLOUDS BELOW 12,000 FEET AGL WITH NO
       SIGNIFICANT WEATHER OR OBSTRUCTIONS TO VISION.

      THIS PRODUCT IS RELEASED AS TWO VERSIONS.  ONE VERSION NEAR
      THE TOP OF THE HOUR CONTAINING PRELIMINARY DATA FROM ALBUQUERQUE
      AND OTHER STATIONS.  A FINAL VERSION WITH ADDITIONAL DATA IS
      ISSUED ABOUT 10 MINUTES AFTER THE HOUR.

NMZ501-503-504-510>518-211000-
NORTHWEST PLATEAU/NORTHCENTRAL MOUNTAINS

CITY           SKY/WX    TMP DP  RH WIND       PRES   REMARKS
FARMINGTON     CLOUDY    55  30  38 W10       29.88R
LOS ALAMOS     MOCLDY    53  31  43 SW7G20    29.93S
SANTA FE       FAIR      56  33  42 W17G30    29.89S
TAOS           MOCLDY    53  30  41 SW21G32   29.92S
ANGEL FIRE     CLOUDY    47  29  50 W18G35    29.93S

$$
NMZ402-403-502-505>509-211000-
WESTCENTRAL MOUNTAINS/SOUTHWEST MOUNTAINS

CITY           SKY/WX    TMP DP  RH WIND       PRES   REMARKS
GALLUP         FAIR      51  37  58 W16G24    29.97S
GRANTS         FAIR      51  32  47 N8G18     29.98R
SILVER CITY    FAIR      56  37  48 NW6       29.96F

$$
NMZ407-409-411-412-211000-
SOUTHERN DESERTS

CITY           SKY/WX    TMP DP  RH WIND       PRES   REMARKS
DEMING         FAIR      62  42  47 SW9       29.90F
LAS CRUCES     FAIR      59  41  50 SW3       29.92S
HOLLOMAN AFB   FAIR      65  40  39 SW6       29.89R
ALAMOGORDO     FAIR      64  39  39 S6        29.90R
T OR C         FAIR      61  40  45 W8        29.88R

$$
NMZ519>523-211000-
CENTRAL VALLEYS/CENTRAL HIGHLANDS

CITY           SKY/WX    TMP DP  RH WIND       PRES   REMARKS
ALBUQUERQUE    CLOUDY    61  35  37 VRB6      29.91S
DOUBLE EAGLE   FAIR      58  34  40 SW13      29.92F
MORIARTY ARPT  FAIR      61  33  35 W16G28    29.91F
CLINES CORNERS FAIR      54  30  40 W23G30    29.92F
BELEN          MOCLDY    58  35  41 N7        29.91S
SOCORRO        FAIR      62  33  33 NE7       29.88R

$$
NMZ524>526-539-540-211000-
SOUTHCENTRAL MOUNTAINS

CITY           SKY/WX    TMP DP  RH WIND       PRES   REMARKS
RUIDOSO        FAIR      57  36  44 SW22      29.96F

$$
NMZ527>531-211000-
NORTHEAST HIGHLANDS/NORTHEAST PLAINS

CITY           SKY/WX    TMP DP  RH WIND       PRES   REMARKS
LAS VEGAS      FAIR      55  28  35 W21G35    29.85F
RATON          FAIR      51  29  42 W12       29.75S
CLAYTON        FAIR      53  44  71 SW9       29.71S

$$
NMZ532>537-211000-
EASTCENTRAL PLAINS

CITY           SKY/WX    TMP DP  RH WIND       PRES   REMARKS
SANTA ROSA     FAIR      52  40  64 SW7       29.80F
TUCUMCARI      FAIR      60  51  72 SW20      29.72F
CANNON AFB     FAIR      57  57 100 S13       29.81S
CLOVIS AIRPORT FAIR      57  56  96 S13       29.81F

$$
NMZ028-029-538-211000-
SOUTHEAST PLAINS

CITY           SKY/WX    TMP DP  RH WIND       PRES   REMARKS
ROSWELL        FAIR      57  55  93 S13       29.79S
ARTESIA        FAIR      54  54 100 SE8       29.81S
CARLSBAD       FAIR      56  56 100 SW6       29.80S
HOBBS          CLOUDY    61  59  94 S16G23    29.84S


$$




USA.gov is the U.S. government's official web portal to all federal, state and local government web resources and services.